Terminal Aerodrome Forecast
Issued by NWS Chicago, IL

Home | Current Version | Previous Version | Graphics & Text | Print | Product List | Glossary On
Versions: 1 2 3 4 5 6 7 8 9 10 11 12 13 14 15 16 17 18 19 20 21 22 23 24 25 26 27 28 29 30 31 32
000
FTUS43 KLOT 220900 AAA
TAFRFD
TAF AMD
KRFD 220901Z 2209/2306 19009KT P6SM FEW100 FEW250
     FM221400 20013G19KT P6SM BKN120
     FM221800 22017G24KT P6SM FEW045 SCT120
     FM222300 24014G20KT P6SM VCTS BKN050CB PROB30 2300/2304 3SM
      TSRA OVC040CB
     FM230400 33010KT P6SM BKN040=

USA.gov is the U.S. government's official web portal to all federal, state and local government web resources and services.